Weather in Obzor

Bulgaria     42°49′10″N   27°52′50″E
temp.,
°C
wind,
m/s
gust,
m/s
humid.,
%
clouds,
%
prec.,
mm/h
press.,
hPa
HPBL,
m
18 april, sun
sun1800:00+9ne4577100 0.0 1016412
03:00+9nne4580100 0.0 1016367
06:00+9ne5682100 0.0 1016392
09:00+9ne5688100 0.1 1016426
12:00+9ne4593100 0.1 1015313
15:00+9ne339495 0.1 1015201
18:00+9nne3395100 0.1 1016194
21:00+9nne4492100 0.3 1017264
19 april, mon
mon1900:00+9n5687100 0.1 1017298
03:00+9nne468490 0.1 1016279
06:00+9nne678168 0.0 1015362
09:00+9nne5682100 0.1 1015402
12:00+9nne6786100 0.6 1014401
15:00+9nne6789100 2.7 1012378
18:00+9n5595100 2.9 1011367
21:00+8n7792100 4.3 1009360
20 april, tue
tue2000:00+9wnw3690100 0.3 1008360
03:00+9w5690100 0.5 1007408
06:00+9w61084100 0.5 1007639
09:00+9w6982100 0.8 1009571
12:00+9wsw6884100 0.3 1012539
15:00+11w4678100 0.4 1012154
18:00+11nne0084100 0.4 101311
21:00+11se0184100 0.4 101510
21 april, wed
wed2100:00+11wsw338015 0.0 101622
03:00+10wsw348439 0.0 101640
06:00+10wsw3382100 0.0 101744
09:00+11wsw4582100 0.0 1018106
12:00+11sw448495 0.9 1018130
15:00+11ne2387100 3.1 101987
18:00+11se2279100 0.3 101876
21:00+11s2279100 0.3 102026
22 april, thu
thu2200:00+11wsw337745 0.0 102024
03:00+10wsw33790 0.0 102041
06:00+10w22781 0.0 102038
09:00+11sw33780 0.0 102161
12:00+12ssw56794 0.0 1022174
15:00+12sse55761 0.0 1022163
18:00+13s5778100 0.0 102190
21:00+11s45851 0.0 102148